Location: *
(58.7167°N, 26.1833°E)
Time: 14:12:44
(UTC+00:00)

ERS-2 - Pass Details

Date: 25 August 2019
Orbit: 495 x 500 km, 98.5° (Epoch: 16 September)

Event Time Altitude Azimuth Distance (km) Brightness Sun altitude
Exits shadow 23:42:34 14° 275° (W) 1,466 4.3 -18.6°
Drops below altitude 10° 23:44:24 10° 305° (NW) 1,710 5.0 -18.5°
Sets 23:47:20 0° 331° (NNW) 2,599 6.3 -18.3°
